Showing default

COSMOS 2517 (GEO-IK), 41579

Orbit data source: Space-Track

COSMOS 2517 (GEO-IK), 41579 is a payload satellite owned by TS VS RF (CIS) in SSO that was launched on Sat, 04 Jun 2016 UTC via an ROKOT launch vehicle from the Plesetsk Missile And Space Complex (PKMTR). Payload-class satellites include a variety of spacecraft equipped with specific instruments for various scientific and technological missions. These include communications satellites like Starlink; space stations such as the ISS; scientific satellites like the Hubble; Earth observation satellites from companies like Planet Labs, Umbra, and HawkEye 360; GPS; miniature CubeSats for education and research; and military/defense satellites.

Loading next visibility...
Identifier
41579, 2016-034A
Orbit
SSO
Country
Flag of CISCIS
Related business
Manufacturer
Resehetnev ISS
Mission
Operational Defense Geodetic
Bus & Motor
GEO-IK-2 14F31, Unknown motor
Mass
~900 kg wet, ~900 kg dry
Launch date (UTC)
2016-06-04 (10 years ago)
Launch vehicle
ROKOT
Launch site
Plesetsk Missile And Space Complex (PKMTR)
Object type
Payload
Rocket body
Debris
Shape & HBR
Cyl + 2 Pan, 1.5 m
Radar Cross Section
3.727 m², Large (>1 m²)

Expand to show TLE details & history
Last TLE update: 23 hours ago

TLE from 23 hours ago
0 COSMOS 2517 (GEO-IK)
1 41579U 16034A   26172.47483866 -.00000006  00000-0  33021-4 0  9994
2 41579  99.1878 181.1791 0001041  88.8343 271.2932 13.85910667508227
Epoch: 2026-06-21T11:23Z
TLE epoch observation values (Epoch: 2026-06-21T11:23:46.060Z)
Latitude
-0.00004°
Longitude
100.56261°
Altitude
945.832 km
Speed
7.379 km/s
True Right ascension
12h 04m 42s
True Declination
0° 00' 00"
Sunlit
Object was in daylight at epoch
Visualization orbit readout
Latitude
Unknown
Longitude
Unknown
Altitude
Unknown
Speed
Unknown
Apparent Right ascension
Unknown
Apparent Declination
Unknown
Sunlit
N/A
Visualization observer readout
Local Sidereal Time
21:23:45
Azimuth
Unknown
Elevation
Unknown
Doppler factor
Unknown
Orbital elements
Apogee altitude
940.986 km
Perigee altitude
939.463 km
Semi-major axis
7,318.361 km
Eccentricity
0.0001
Inclination
99.1878°
RAAN
181.1791°
Arg. of periapsis
88.8343°
True anomaly
271.28127°
Mean anomaly
271.2932°
Eccentric anomaly
271.28724°
Mean motion
3.46675 °/min
Orbital period
103.84 mins
BSTAR
0.000033021
Loading maneuver chart data...
Computing Atmospheric mass density...
Loading historical data...
Loading historical data...
Loading historical data...
Loading historical data...
Loading historical data...
Loading historical data...
Loading historical data...
Other satellites on launch #34 in the year 2016 (2016-06-04 UTC)

Documentation

Showing up to 5 results
|